Find Kuiper-00169

NORAD ID: 65782 Int'l Des: 2025-217 Owner: KUIP Country: US Constellation: amazon-leo operational
LEOCIRCULAR

Current View

Loading 3D Globe...

About Kuiper-00169

Description loading...

Upcoming Passes

Passes for default location (London). Set your location on the main map for personalized predictions.

Altitude History

Loading altitude history...

Two-Line Element Set

1 65782U 25217W 26148.88575112 .00003275 00000-0 45839-3 0 9992
2 65782 51.9028 38.4825 0000668 116.2348 243.8683 14.79933356 36890
Epoch: May 28, 2026 • Age: 36 hours

Current Status

Altitude 630.5 km
Velocity 7.55 km/s
Sub-Earth Point 29.21°N, 154.76°E
Launch Date Sep 25, 2025
Age 0.6 years
Type internet

Technical Details

Classification Payload
Mass 490.00 kg
Dry Mass 490.00 kg
Total Mass 490.00 kg
Length 1.80 m
Diameter 0.70 m
Span 5.00 m
Shape Box + 2 pan
Manufacturer KUIP
Bus Type Kuiper
Phase Status In Orbit
Owner/State KUIP/US

Most Searched